Wind_Speed
1 1 5 7 8 10 9 10 11 11 10 9 10 11 11 12 14 14 13 13 12 7 6 6 7 4 5 5 7 2 4 6 8 9 9 8 9 10 12 13 14 13 12
1 2 3 6 5 5 9 9 10 10 10 9 9 9 11 11 13 11 10 11 8 8 5 5 5 4 2 5 6 4 8 8 10 9 7 9 10 14 14 15 15 13 12
1 2 2 4 7 10 12 9 7 7 9 11 7 8 9 9 10 8 8 8 6 8 4 5 6 5 4 4 6 5 5 8 10 9 9 10 11 14 15 15 15 14 12
2 2 4 3 6 9 14 10 5 5 8 10 11 8 7 8 7 7 7 7 7 6 7 6 7 6 4 3 4 4 4 2 4 9 11 12 13 15 15 14 15 14 12
3 4 5 5 6 7 8 10 6 5 6 6 7 7 7 7 7 9 8 5 5 7 6 4 6 5 4 4 4 3 7 3 6 12 11 13 14 15 15 14 14 13 12
3 4 8 7 8 11 12 10 9 9 7 5 5 5 6 7 8 10 5 4 4 4 5 4 4 6 4 5 6 5 4 8 9 12 10 13 14 14 14 13 14 12 11
3 7 7 7 8 11 11 10 8 7 6 4 4 4 4 6 7 8 6 6 3 3 4 5 6 6 5 5 7 9 8 8 12 12 11 12 13 13 13 13 12 12 11
3 10 8 7 7 11 11 8 7 5 2 2 4 4 4 6 7 8 8 9 9 3 5 6 6 5 7 10 8 11 10 15 12 12 14 12 11 12 13 11 10 11 10
4 7 8 8 8 13 12 8 6 4 3 2 4 6 7 9 8 8 10 11 8 6 5 5 5 6 8 8 7 11 13 12 9 9 11 13 12 12 12 11 10 9 9
7 8 8 8 7 15 14 8 5 4 6 6 9 9 10 11 8 11 14 11 7 6 4 5 5 6 7 8 8 7 9 8 9 9 12 11 10 11 12 11 11 11 10
6 8 10 10 9 15 13 7 5 4 2 6 9 9 14 13 12 10 13 10 9 7 7 8 8 8 7 8 7 7 6 6 7 10 12 12 11 11 11 10 10 10 9
6 7 9 9 9 12 12 7 5 4 7 7 7 10 12 8 8 9 9 11 10 10 11 9 8 7 7 7 7 7 6 5 4 10 12 13 12 12 10 10 9 9 8
7 9 9 8 11 11 10 7 5 5 5 7 6 7 8 7 5 6 7 8 9 9 11 8 6 6 7 7 6 6 6 5 5 7 12 12 12 11 10 10 9 8 7
7 9 9 8 11 11 10 7 4 6 6 6 6 6 6 6 5 7 11 9 8 9 8 8 7 6 5 6 6 5 5 4 5 6 10 9 9 9 9 8 7 5 4
9 9 10 10 12 12 10 7 5 5 7 7 6 5 5 5 4 7 8 11 8 11 8 7 7 6 5 5 7 7 5 3 5 6 6 5 5 5 5 5 4 4 4
8 10 11 12 13 14 12 9 7 5 6 7 6 6 6 4 3 4 6 8 8 10 8 6 6 5 4 4 6 7 6 4 5 5 5 4 2 2 2 4 5 5 4
7 9 11 12 15 15 13 10 8 5 8 5 6 7 7 5 2 3 4 6 7 7 9 6 3 4 5 4 5 6 5 5 4 4 5 4 4 4 4 5 4 3 4
10 9 11 13 13 15 14 12 10 9 8 5 5 7 7 6 4 1 4 4 6 6 7 7 3 3 4 3 4 4 5 4 4 2 3 4 5 4 3 4 5 5 6
12 12 12 13 13 14 16 15 14 13 12 7 6 9 9 7 5 4 3 5 5 4 5 4 4 4 3 2 3 4 4 3 3 2 2 2 2 3 3 4 5 7 7
13 11 12 13 14 15 15 17 17 14 12 9 8 10 11 9 8 6 4 3 5 4 3 3 3 4 4 2 2 2 3 2 1 2 2 3 5 4 4 4 5 7 7
15 13 13 12 13 14 17 17 16 10 12 10 9 11 13 11 8 6 5 5 4 4 4 3 4 1 3 3 4 4 1 1 2 2 2 4 4 5 5 5 5 6 7
15 14 14 10 11 13 17 17 16 15 13 12 12 13 14 12 9 7 5 4 2 2 3 4 4 1 1 1 2 2 3 3 2 3 2 2 3 4 5 6 6 6 7
14 13 12 11 13 11 14 18 16 16 15 12 14 14 14 12 11 9 6 4 3 0 2 3 2 1 5 3 4 4 4 5 3 3 4 3 3 3 4 5 5 5 4
16 16 14 12 12 13 13 16 17 16 15 13 14 14 14 14 13 10 7 4 4 2 1 1 1 3 4 5 5 5 6 6 5 4 4 6 5 4 3 3 4 3 3
16 17 15 14 14 15 15 17 16 16 15 14 15 15 15 16 13 11 8 7 6 3 3 3 1 2 4 4 6 9 7 9 5 5 5 6 6 6 5 3 4 4 3
15 15 14 14 15 16 17 16 16 16 17 15 16 15 16 13 11 11 10 9 7 7 8 7 6 7 5 3 3 1 2 7 6 7 7 8 7 8 7 5 6 5 6
Wind_Direction
69 101 70 52 55 103 96 99 93 90 90 81 79 82 83 82 80 77 70 60 50 56 73 68 63 67 115 146 187 135 116 122 138 156 166 173 169 165 174 161 156 151 147
64 165 101 57 43 118 132 102 94 94 72 73 80 76 80 76 77 78 74 69 49 46 71 66 59 47 92 129 180 146 122 136 151 150 169 178 172 171 168 157 153 150 148
190 188 146 62 59 136 153 122 86 86 72 71 82 88 77 76 79 78 67 67 54 33 39 68 44 47 44 106 142 181 120 171 173 160 162 169 171 166 166 158 151 149 149
202 163 145 94 108 111 129 128 107 71 60 53 64 104 85 82 81 68 58 67 71 58 6 41 54 38 39 85 135 171 207 170 205 160 161 167 170 163 162 159 148 148 147
179 134 125 110 111 107 133 114 105 89 77 69 80 90 79 77 65 63 61 67 70 59 47 17 32 40 50 62 116 113 39 242 205 171 169 173 170 164 162 162 149 148 149
177 158 133 120 119 114 119 108 101 100 82 70 68 72 67 70 67 62 46 84 81 58 60 38 57 62 59 78 104 68 134 208 178 174 162 177 176 170 166 167 152 147 155
189 175 143 136 128 130 128 114 114 100 77 74 91 77 82 80 72 36 34 36 10 55 68 61 61 67 70 90 114 96 102 127 155 168 171 171 173 173 178 170 153 155 162
153 162 148 147 148 143 129 117 106 91 70 96 122 142 122 87 75 58 48 15 338 83 94 83 70 83 76 103 113 123 114 126 129 167 185 180 164 175 173 171 161 161 166
158 180 161 157 158 166 141 133 116 88 29 336 205 139 115 85 92 57 29 3 43 116 70 86 73 87 100 102 97 111 115 136 136 133 160 173 170 170 171 175 169 167 175
165 175 169 160 149 160 152 141 119 86 52 70 143 128 110 105 88 62 56 69 83 94 73 114 85 84 91 93 105 109 116 139 153 142 139 149 152 157 163 172 176 175 178
186 174 169 164 154 163 162 149 141 101 75 125 115 118 119 103 69 54 53 38 81 71 115 106 82 77 88 79 104 115 108 105 150 158 143 140 133 143 160 166 170 175 170
190 175 166 157 163 174 173 167 149 79 106 130 126 123 117 83 68 65 51 47 79 75 91 112 83 73 76 74 109 114 105 91 126 164 157 151 131 124 137 160 155 152 150
185 194 183 167 177 178 166 164 145 142 141 140 142 117 110 88 79 91 77 77 73 82 81 92 67 87 80 87 77 120 128 90 83 161 171 166 146 134 132 136 152 162 164
190 194 191 179 174 186 172 176 173 154 154 152 147 141 120 93 86 74 71 68 78 75 83 89 84 70 81 93 90 109 119 101 87 116 175 174 163 150 141 146 150 160 168
199 191 195 192 182 187 183 181 166 175 166 166 155 153 136 119 84 75 70 73 80 69 82 84 88 79 75 79 93 105 107 125 128 111 152 179 174 159 157 152 174 175 204
203 199 203 208 204 191 195 194 192 188 185 190 177 174 157 136 114 101 76 86 89 78 86 69 69 83 76 78 82 92 102 123 156 149 148 152 150 161 199 200 207 207 226
199 202 208 219 212 204 207 211 214 219 195 195 180 179 169 160 174 102 95 114 101 92 67 67 79 96 85 57 72 90 104 117 141 168 177 184 203 209 224 245 254 250 264
215 216 219 224 223 217 220 220 220 205 209 210 198 187 183 172 162 126 152 134 98 97 76 56 56 102 86 77 74 71 94 115 123 145 174 198 212 222 239 256 259 259 263
222 225 233 232 232 229 230 230 221 224 229 230 206 201 198 183 177 186 135 137 117 103 71 48 64 90 97 122 98 83 79 97 132 157 189 222 245 246 238 255 268 271 275
227 233 237 240 239 237 235 230 227 219 228 226 212 211 206 200 189 195 187 162 132 102 65 24 46 118 158 143 136 136 118 98 93 172 200 234 258 267 276 272 280 279 274
230 235 236 236 248 243 237 236 240 225 230 229 228 215 207 208 202 202 199 194 152 112 74 45 6 15 109 179 192 147 199 172 134 169 176 223 250 263 276 267 259 259 260
232 237 237 238 252 242 236 230 228 227 230 236 230 213 210 210 209 214 209 204 163 108 67 15 348 274 349 285 259 179 194 225 251 270 280 281 278 264 263 264 255 251 254
241 245 245 247 257 249 240 229 221 228 231 236 240 221 215 212 212 217 214 217 237 183 68 43 39 325 306 287 262 229 214 216 242 262 268 269 264 269 258 251 249 250 248
241 240 240 245 247 256 246 242 233 237 241 246 243 231 215 213 218 215 220 227 251 240 138 90 35 296 312 298 288 269 257 225 221 222 262 268 263 261 258 255 250 256 258
244 247 247 244 244 246 238 245 248 238 243 249 248 233 211 209 218 221 231 239 250 261 266 284 223 248 276 289 306 280 248 218 251 211 239 260 261 258 268 273 287 277 259
239 233 246 239 239 239 245 232 241 241 242 243 245 228 207 207 216 225 229 242 250 271 275 273 252 274 254 253 345 48 187 214 217 247 239 235 245 250 256 274 266 263 265
Height
5910 5910 5911 5911 5910 5910 5911 5911 5912 5912 5912 5911 5910 5910 5909 5909 5909 5908 5909 5909 5909 5909 5908 5908 5907 5907 5907 5906 5906 5905 5905 5904 5904 5905 5906 5906 5906 5907 5908 5908 5910 5910 5912
5911 5911 5911 5911 5910 5910 5911 5913 5913 5913 5913 5912 5911 5910 5909 5909 5909 5910 5910 5909 5909 5907 5908 5907 5907 5907 5906 5906 5905 5905 5905 5905 5905 5906 5906 5907 5908 5908 5910 5910 5911 5912 5913
5911 5912 5912 5911 5911 5910 5912 5914 5914 5914 5913 5912 5910 5910 5910 5910 5910 5910 5910 5909 5908 5907 5906 5907 5907 5906 5904 5904 5905 5904 5904 5905 5905 5906 5907 5907 5909 5910 5910 5912 5913 5914 5915
5912 5911 5912 5912 5913 5912 5913 5914 5915 5915 5913 5912 5910 5910 5911 5912 5912 5911 5910 5909 5909 5908 5908 5906 5906 5906 5905 5904 5904 5904 5903 5905 5905 5906 5907 5908 5910 5911 5912 5914 5914 5915 5916
5912 5912 5912 5912 5913 5913 5914 5916 5916 5916 5915 5913 5911 5911 5912 5912 5913 5913 5911 5910 5909 5909 5909 5909 5907 5906 5906 5904 5902 5902 5902 5905 5905 5907 5907 5909 5911 5912 5913 5915 5915 5915 5916
5912 5912 5912 5913 5913 5914 5915 5917 5918 5917 5916 5914 5912 5912 5912 5913 5913 5914 5913 5912 5911 5910 5909 5908 5907 5906 5905 5904 5903 5901 5900 5905 5906 5907 5908 5910 5913 5913 5914 5915 5915 5916 5918
5912 5912 5913 5913 5914 5915 5916 5918 5918 5918 5916 5915 5914 5914 5913 5914 5914 5914 5913 5913 5911 5911 5910 5909 5908 5907 5907 5905 5905 5905 5906 5906 5906 5907 5909 5911 5913 5914 5915 5916 5917 5918 5920
5912 5912 5913 5913 5914 5915 5917 5918 5919 5918 5916 5915 5915 5915 5915 5916 5916 5915 5914 5912 5910 5911 5911 5910 5909 5908 5908 5907 5907 5907 5907 5907 5907 5908 5910 5911 5912 5914 5916 5918 5918 5919 5921
5913 5913 5913 5913 5915 5915 5917 5918 5919 5918 5917 5915 5915 5916 5917 5918 5918 5916 5914 5912 5910 5911 5911 5911 5910 5909 5909 5908 5908 5909 5909 5910 5910 5910 5910 5911 5913 5915 5916 5918 5919 5921 5922
5913 5913 5912 5913 5914 5916 5917 5918 5918 5918 5917 5915 5916 5917 5919 5919 5918 5917 5915 5913 5912 5913 5912 5911 5910 5909 5909 5909 5909 5910 5911 5912 5912 5912 5912 5913 5915 5916 5917 5919 5920 5921 5922
5912 5913 5913 5914 5915 5917 5917 5918 5919 5919 5918 5918 5918 5919 5920 5919 5918 5918 5917 5915 5914 5913 5912 5912 5911 5910 5910 5910 5910 5911 5912 5912 5913 5914 5914 5915 5916 5917 5919 5921 5921 5922 5923
5912 5913 5913 5913 5915 5917 5918 5918 5919 5918 5918 5918 5920 5920 5920 5920 5919 5919 5918 5915 5915 5915 5914 5913 5912 5912 5911 5912 5911 5912 5913 5913 5914 5915 5916 5917 5917 5918 5920 5922 5923 5924 5925
5911 5912 5913 5912 5914 5917 5918 5918 5918 5917 5917 5918 5920 5921 5921 5920 5919 5919 5919 5918 5917 5916 5916 5915 5914 5914 5913 5912 5913 5913 5914 5914 5914 5915 5917 5918 5918 5919 5921 5922 5923 5924 5924
5911 5912 5912 5913 5914 5916 5917 5917 5917 5918 5917 5918 5920 5922 5922 5920 5919 5917 5919 5918 5918 5917 5917 5917 5915 5915 5914 5914 5913 5914 5914 5914 5915 5916 5918 5920 5920 5920 5922 5922 5923 5924 5925
5910 5911 5912 5913 5914 5916 5917 5918 5918 5919 5918 5919 5920 5922 5922 5921 5920 5919 5919 5919 5919 5919 5919 5918 5917 5916 5915 5914 5913 5914 5914 5915 5917 5918 5919 5921 5922 5922 5922 5923 5924 5924 5925
5909 5910 5912 5913 5914 5916 5917 5918 5918 5919 5919 5919 5920 5921 5921 5922 5921 5921 5921 5921 5920 5920 5920 5919 5919 5918 5917 5915 5914 5914 5915 5916 5918 5918 5920 5921 5922 5922 5922 5923 5923 5924 5924
5908 5909 5911 5912 5913 5915 5916 5917 5918 5919 5919 5919 5920 5920 5921 5922 5922 5922 5921 5921 5920 5919 5920 5920 5919 5918 5918 5917 5916 5915 5915 5917 5919 5919 5920 5921 5922 5923 5923 5923 5923 5923 5923
5907 5908 5909 5911 5913 5914 5914 5915 5916 5917 5919 5919 5919 5919 5920 5921 5922 5923 5922 5922 5921 5919 5920 5920 5919 5917 5919 5919 5917 5917 5917 5917 5918 5919 5920 5920 5921 5922 5922 5923 5923 5923 5922
5905 5906 5908 5909 5911 5912 5913 5914 5913 5914 5916 5917 5919 5919 5920 5920 5922 5923 5923 5923 5921 5920 5920 5921 5920 5920 5920 5920 5920 5919 5919 5918 5918 5918 5919 5920 5920 5920 5921 5921 5921 5921 5921
5903 5905 5906 5907 5909 5911 5911 5912 5911 5912 5914 5915 5917 5919 5919 5920 5921 5923 5923 5923 5922 5921 5921 5921 5921 5921 5921 5921 5921 5920 5919 5919 5919 5919 5919 5920 5920 5920 5920 5920 5920 5920 5920
5900 5902 5904 5906 5907 5909 5909 5909 5909 5909 5912 5913 5915 5917 5918 5919 5921 5922 5922 5923 5922 5922 5921 5922 5922 5922 5921 5921 5920 5921 5921 5921 5920 5920 5920 5920 5920 5921 5921 5920 5920 5920 5920
5898 5900 5902 5904 5905 5906 5907 5908 5908 5908 5911 5912 5913 5915 5916 5917 5920 5921 5921 5922 5922 5922 5922 5923 5922 5922 5922 5921 5921 5920 5921 5922 5921 5921 5920 5920 5921 5921 5921 5922 5921 5921 5920
5895 5897 5900 5902 5903 5903 5905 5904 5903 5906 5908 5910 5911 5913 5914 5916 5918 5919 5920 5920 5921 5922 5922 5923 5922 5922 5921 5921 5921 5920 5919 5920 5920 5921 5921 5921 5922 5922 5921 5922 5921 5921 5920
5891 5893 5896 5898 5900 5902 5903 5902 5903 5904 5907 5908 5910 5911 5913 5914 5916 5917 5918 5919 5920 5921 5921 5922 5922 5921 5920 5920 5919 5919 5919 5919 5920 5920 5921 5922 5922 5922 5922 5922 5921 5920 5920
5889 5892 5893 5895 5897 5899 5900 5901 5901 5902 5905 5905 5907 5908 5910 5913 5915 5916 5917 5918 5919 5920 5920 5921 5921 5921 5920 5919 5918 5917 5917 5918 5919 5919 5919 5920 5921 5921 5921 5921 5921 5920 5920
5888 5890 5890 5892 5895 5896 5897 5899 5900 5901 5902 5903 5905 5906 5907 5911 5913 5915 5915 5916 5916 5917 5918 5919 5919 5919 5919 5918 5917 5916 5916 5917 5917 5918 5918 5918 5919 5920 5920 5920 5920 5920 5920